Погода в Даниловке

Погода в Даниловке : погода сейчас, прогноз погоды и архив. Всё, что Вы хотите узнать о погоде в Даниловке!

Хотите узнать прогноз погоды в Даниловке? Тогда Вам сюда: Погода в Даниловке

Поиск расширенной информации на нашем сайте:

Полезная информация: фильтр с ионообменной смолой для умягчения воды

Другие новости

Новости СМИ2

Главная страница сайта

Новости сайта

02.10.2013

Напоминаем, что на нашем новом сайте вы можете получить высокодетализированные прогнозы погоды по пунктам России, СНГ и мира (включающие важные для авиации метеовеличины, такие как направление и скорость ветра, видимость, явления погоды, количество и форма облачности, нижняя и верхняя граница облачности), а также ознакомиться с разнообразными материалами по авиационной метеорологии и подборкой полезных ссылок на эту тему.

Сайт Метеоцентр.Азия посвящён разработке технологий оптимизации авиаметеорологического обслуживания, включая проектирование и перспективное создание нескольких автоматизированных авиаметеорологических систем:
- система выпуска высокодетальных прогностических карт явлений погоды для нижнего воздушного пространства по России и ближнему зарубежью;
- система верификации прогнозов TAF (выпускаемых синоптиками официальных АМСГ РФ и ближнего зарубежья) и AUTOTAF (выпускаемых сайтом Метеоцентр.Азия) - выявление ошибок, онлайн-сопоставление с фактической погодой METAR, автоматическое внесение коррективов в прогнозы при резком отклонении фактической погоды от прогноза, подсчёт оправдываемости прогнозов по элементам и в целом;
- система обработки, анализа и отображения авиаметеорологической информации для применения провайдерами метеорологической информации.

Рекомендуем: http://2-sklad.ru/ мастертекс 500мл пена монтажная купить.

Погода в Даниловке - сегодня

Время (UTC), дата Ветер
(°,м/с) 
Видим.   Явления Облачность Т
(°С)
Тd
(°С)
f(%) Тe
(°С)
Pmin
(гПа)
dP
(гПа)
Po
(мм)
O2
(г/м3)
Тmin Tmax R s Состояние
почвы
12 23.02.17 180 (Ю) 5{10}  20000 м    10/10 600 м 
[Sc]
+1.8 -1.2 80 -1  1001.3  -2.8  742  297           
15 23.02.17 180 (Ю) 7-12{12}  4000 м  слаб. дождь{снег}  10/10 300 м 
[Frnb|Ns]
+1.2 +0 92 -2  997.2  -4.1  738  296    +2.8  0.6     
18 23.02.17 190 (Ю) 5{13}  4000 м  в посл. час снег{дождь}  10/10 300 м 
[St]
+1.1 +0.2 94 -2  994.2  -3  736  295           
21 23.02.17 250 (З) 5-10{11}  4000 м  дымка{дождь}  10/10 300 м 
[St]
+1.4 -0.1 90 -1  995.4  1.2  737  295           
00 24.02.17 250 (З) 5{12}  20000 м  {дождь}  5/0 средняя 
[Ac trans]
+1 -1.2 85 -2  998.5  3.1  739  297           
03 24.02.17 250 (З) 5{10}  20000 м    10/10 600 м 
[Sc]
+1.1 -0.9 86 -2  1001.5  2.9  742  298  +0.6       
06 24.02.17 240 (ЮЗ) 5-10{10}  20000 м    10/10 600 м 
[Sc]
+1.8 -0.6 84 -1  1004.7  3.2  744  298           
09 24.02.17 240 (ЮЗ) 5{10}  20000 м    10/5 600 м верхняя 
[Sc|Cs]
+3.5 -0.5 75 +1  1006.1  1.4  745  296           
12 24.02.17 230 (ЮЗ) 20000 м    10/5 600 м средняя, верхняя 
[Sc|Ac trans|Cs]
+5.9 -1.3 60 +4  1006.5  0.5  746  294           
15 24.02.17 180 (Ю) 3{10}  20000 м    10/10 600 м кучево-дожд. 
[Cb calv]
+2 -0.6 83 +1  1005.9  -0.8  745  298    +5.9       
18 24.02.17 190 (Ю) 6-11{12}  20000 м    10/10 600 м 
[Sc]
+2.5 +1 90 1004.7  -1.2  744  297           
21 24.02.17 200 (Ю) 5{11}  4000 м  дымка  10/10 600 м 
[Sc]
+3.8 +2.7 93 +1  1003.4  -1.2  743  295           
00 25.02.17 210 (ЮЗ) 5{11}  20000 м    10/10 600 м 
[Sc]
+4.7 +3.2 90 +3  1003.6  0.3  743  294           
03 25.02.17 210 (ЮЗ) 4000 м  дымка  10/10 600 м 
[Sc]
+3.8 +2.8 93 +2  1003.3  -0.4  743  295  +1.8      14  равномерный
мокрый или
старый снег
100% 
06 25.02.17 200 (Ю) 3{10}  2000 м  дымка  10/10 300 м 
[St]
+3.4 +2.6 94 +2  1004.9  1.6  744  296           
09 25.02.17 220 (ЮЗ) 4000 м  дымка  10/10 600 м 
[Sc]
+4.4 +3 91 +3  1005.2  0.3  744  295           
12 25.02.17 230 (ЮЗ) 20000 м    10/10 600 м 
[Sc]
+4.7 +1.8 81 +3  1004.8  -0.4  744  294           
15 25.02.17 230 (ЮЗ) 4000 м  слаб. дождь  10/10 300 м 
[Frnb|Ns]
+2.2 +1 92 1004.4  -0.5  744  297    +5  0.8     
18 25.02.17 300 (СЗ) 2000 м  слаб. снег{дождь}  10/10 300 м 
[Frnb|Ns]
+0.2 -0.4 96 -2  1004.8  0.4  744  300           
21 25.02.17 290 (З) 2{10}  4000 м  слаб. снег [диам. отлож. мокр. снега 4 мм]  10/10 300 м 
[Frnb|Ns]
-1.6 -2.8 92 -3  1007.6  2.6  746  303           
00 26.02.17 280 (З) 20000 м  {снег} [диам. отлож. мокр. снега 4 мм]  ясно 
-3.6 -6.1 83 -6  1010.3  2.6  748  306           
03 26.02.17 240 (ЮЗ) 20000 м  [диам. отлож. мокр. снега 4 мм]  ясно 
-4.6 -7.4 81 -7  1012.2  1.8  749  308  -4.6    12  равномерный
сухой снег
100% 
06 26.02.17 250 (З) 20000 м  [диам. отлож. мокр. снега 4 мм]  ясно 
-3.4 -6.5 79 -6  1014.5  2.3  751  307  -5         
09 26.02.17 250 (З) 5-10{12}  20000 м  [диам. отлож. мокр. снега 0 мм]  5/5 600 м кучево-дожд. 
[Cb calv]
-1.5 -5.3 75 -5  1015.4  752  305           
12 26.02.17 250 (З) 6-10{12}  20000 м  в посл. час ливневой снег  10/10 300 м кучево-дожд. 
[Cb calv]
-1.2 -4.8 76 -5  1016.3  753  305           
Время (UTC), дата Ветер
(°,м/с) 
Видим.   Явления Облачность Т
(°С)
Тd
(°С)
f(%) Тe
(°С)
Pmin
(гПа)
dP
(гПа)
Po
(мм)
O2
(г/м3)
Тmin Tmax R s Состояние
почвы

Для получения пояснительной информации подведите курсор к названию столбца.

ПОГОДА в Даниловке - архив

Всё, что Вы хотите узнать о погоде в Даниловке - удобно и подробно!

Выберите нужную дату (начиная с 1 января 2015* года) и нажмите кнопку "Найти".
Будут отображены архивные сводки погоды по пункту Даниловка, начиная с указанной даты.


Отображать данные в формате CSV (для использования в таблицах Excel)


Внимание! Наш архив погоды предназначен исключительно для личного некоммерческого использования в познавательных целях. Если Вам необходимы официальные справки о состоянии погоды (для производственных, юридических, коммерческих и т.п. целей), обращайтесь в органы Росгидромета.

*Примечание: данная дата относится к архиву по метеостанциям СССР (Россия, СНГ, Балтия).
Архив по метеостанциям Зарубежной Европы и Азии (кроме Китая) хранится 10 дней, по другим регионам земного шара (Китай, Африка, Америка, Австралия, Океания) - 1 день.

Даниловка - район местоположения метеостанции


Название, широта, долгота, высота метеостанции:
Даниловка 50.4°ш. 44.1°д. 102 м над ур. моря [Российская Федерация]

Дополнительная информация

В oтличие oт бoльшинства пoгoдных сайтoв мы публикуем пoдрoбную метеoинфoрмацию в детальнoм прoфессиoнальнoм фoрмате.

Характеристики температуры и влажнoсти вoздуха измеряются на высoте 2 м в тени вдали oт зданий и деревьев.
Скoрoсть ветра измеряется на высoте 10 м (на урoвне рoста челoвека скoрoсть ветра ниже в 1.5-2 раза). Если метеoстанция нахoдится в гoрoде или в лесу, тo скoрoсть ветра занижена на 2-4 м/с пo сравнению с oткрытым местoм. Скoрoсть ветра над акватoриями крупных рек и oзёр, а также на вершинах хoлмoв на 2-5 м/с выше, чем в oбычных услoвиях.
Атмoсфернoе давление в разных тoчках местнoсти мoжет значительнo oтличаться oт давления на метеoстанции, в зависимoсти oт услoвий рельефа (при пoдъёме на 10 м давление пoнижается примернo на 1 мм рт.ст.).